When you browse on this site, cookies collect data to enhance your experience and personalize the content and advertising you see.
Visit our Privacy Policy to learn more. By continuing to use the site, you agree to this use of cookies and data.
  • Em Portugal
  • Lista de países
  • Para 7 dias
  • Temperatura da água
  • Mapa do tempo
  • Widgets de tempo
  • user-avatar
    Iniciar Sessão

    Previsão horária em Querns

    Hoje, 26 Maio, Terça-feira

    Tempo Temperatura Precipitação Vento Pressão Humidade
    00:00 +13°C° 0 mm 3 m/s 763 mmHg 87%
    01:00 +13°C° 0 mm 3 m/s 763 mmHg 86%
    02:00 +14°C° 0 mm 2 m/s 762 mmHg 86%
    03:00 +14°C° 0 mm 2 m/s 762 mmHg 85%
    04:00 +14°C° 0 mm 2 m/s 762 mmHg 85%
    05:00 +14°C° 0 mm 2 m/s 762 mmHg 84%
    06:00 +14°C° 0 mm 2 m/s 763 mmHg 83%
    07:00 +14°C° 0 mm 2 m/s 763 mmHg 82%
    08:00 +17°C° 0 mm 2 m/s 763 mmHg 72%
    09:00 +20°C° 0 mm 3 m/s 763 mmHg 62%
    10:00 +24°C° 0 mm 3 m/s 764 mmHg 51%
    11:00 +25°C° 0 mm 3 m/s 763 mmHg 50%
    12:00 +26°C° 0 mm 3 m/s 762 mmHg 48%
    13:00 +27°C° 0 mm 3 m/s 762 mmHg 47%
    14:00 +26°C° 0 mm 4 m/s 762 mmHg 52%
    15:00 +25°C° 0 mm 4 m/s 761 mmHg 57%
    16:00 +23°C° 0 mm 4 m/s 761 mmHg 62%
    17:00 +21°C° 0 mm 4 m/s 761 mmHg 71%
    18:00 +19°C° 0 mm 3 m/s 762 mmHg 81%
    19:00 +17°C° 0 mm 3 m/s 762 mmHg 90%
    20:00 +17°C° 0 mm 3 m/s 763 mmHg 90%
    21:00 +16°C° 0 mm 3 m/s 763 mmHg 90%
    22:00 +16°C° 0 mm 3 m/s 763 mmHg 90%
    23:00 +14°C° 0 mm 3 m/s 763 mmHg 89%

    Amanhã, 27 Maio, Quarta-feira

    Tempo Temperatura Precipitação Vento Pressão Humidade
    00:00 +14°C° 0 mm 3 m/s 763 mmHg 89%
    01:00 +14°C° 0 mm 3 m/s 763 mmHg 89%
    02:00 +14°C° 0 mm 3 m/s 763 mmHg 90%
    03:00 +14°C° 0 mm 3 m/s 762 mmHg 90%
    04:00 +14°C° 0 mm 3 m/s 762 mmHg 91%
    05:00 +14°C° 0 mm 3 m/s 762 mmHg 91%
    06:00 +14°C° 0 mm 3 m/s 763 mmHg 91%
    07:00 +14°C° 0 mm 3 m/s 763 mmHg 91%
    08:00 +18°C° 0 mm 3 m/s 763 mmHg 79%
    09:00 +21°C° 0 mm 3 m/s 764 mmHg 68%
    10:00 +25°C° 0 mm 3 m/s 764 mmHg 57%
    11:00 +26°C° 0 mm 3 m/s 763 mmHg 55%
    12:00 +27°C° 0 mm 4 m/s 763 mmHg 54%
    13:00 +28°C° 0 mm 4 m/s 762 mmHg 52%
    14:00 +27°C° 0 mm 4 m/s 761 mmHg 56%
    15:00 +26°C° 0 mm 4 m/s 761 mmHg 61%
    16:00 +25°C° 0 mm 4 m/s 761 mmHg 65%
    17:00 +23°C° 0 mm 4 m/s 761 mmHg 74%
    18:00 +21°C° 0 mm 4 m/s 762 mmHg 83%
    19:00 +19°C° 0 mm 4 m/s 762 mmHg 93%
    20:00 +18°C° 0 mm 4 m/s 763 mmHg 94%
    21:00 +18°C° 0 mm 4 m/s 763 mmHg 95%
    22:00 +18°C° 0 mm 3 m/s 763 mmHg 96%
    23:00 +17°C° 0 mm 3 m/s 763 mmHg 96%

    Depois de amanhã, 28 Maio, Quinta-feira

    Tempo Temperatura Precipitação Vento Pressão Humidade
    00:00 +17°C° 0 mm 3 m/s 763 mmHg 96%
    01:00 +17°C° 0 mm 3 m/s 762 mmHg 96%
    02:00 +17°C° 0 mm 3 m/s 762 mmHg 95%
    03:00 +17°C° 0 mm 3 m/s 762 mmHg 95%
    04:00 +17°C° 0 mm 3 m/s 762 mmHg 95%
    05:00 +17°C° 0 mm 3 m/s 762 mmHg 94%
    06:00 +17°C° 0 mm 3 m/s 763 mmHg 94%
    07:00 +17°C° 0 mm 3 m/s 763 mmHg 94%
    08:00 +19°C° 0 mm 3 m/s 763 mmHg 83%
    09:00 +22°C° 0 mm 4 m/s 763 mmHg 72%
    10:00 +26°C° 0 mm 4 m/s 764 mmHg 61%
    11:00 +27°C° 0 mm 4 m/s 763 mmHg 58%
    12:00 +28°C° 0 mm 4 m/s 762 mmHg 55%
    13:00 +29°C° 0 mm 5 m/s 762 mmHg 53%
    14:00 +28°C° 0 mm 5 m/s 762 mmHg 57%
    15:00 +28°C° 0 mm 5 m/s 761 mmHg 61%
    16:00 +27°C° 0 mm 5 m/s 761 mmHg 64%
    17:00 +25°C° 0 mm 5 m/s 762 mmHg 74%
    18:00 +22°C° 0 mm 4 m/s 762 mmHg 85%
    19:00 +20°C° 0 mm 4 m/s 762 mmHg 95%
    20:00 +20°C° 0 mm 4 m/s 763 mmHg 95%
    21:00 +19°C° 0 mm 4 m/s 763 mmHg 96%
    22:00 +19°C° 0 mm 4 m/s 763 mmHg 96%
    23:00 +19°C° 0 mm 4 m/s 763 mmHg 96%

    29 Maio, Sexta-feira

    Tempo Temperatura Precipitação Vento Pressão Humidade
    00:00 +18°C° 0 mm 4 m/s 763 mmHg 95%
    01:00 +18°C° 0 mm 4 m/s 763 mmHg 94%
    02:00 +18°C° 0 mm 4 m/s 763 mmHg 93%
    03:00 +18°C° 0 mm 4 m/s 762 mmHg 92%
    04:00 +18°C° 0 mm 4 m/s 762 mmHg 91%
    05:00 +18°C° 0 mm 4 m/s 762 mmHg 91%
    06:00 +18°C° 0 mm 4 m/s 763 mmHg 92%
    07:00 +18°C° 0 mm 4 m/s 763 mmHg 92%
    08:00 +21°C° 0 mm 4 m/s 763 mmHg 83%
    09:00 +23°C° 0 mm 4 m/s 763 mmHg 75%
    10:00 +27°C° 0 mm 5 m/s 763 mmHg 66%
    11:00 +28°C° 0 mm 5 m/s 763 mmHg 65%
    12:00 +28°C° 0 mm 5 m/s 762 mmHg 63%
    13:00 +29°C° 0 mm 6 m/s 761 mmHg 61%
    14:00 +29°C° 0 mm 5 m/s 761 mmHg 62%
    15:00 +28°C° 0 mm 5 m/s 761 mmHg 64%
    16:00 +28°C° 0 mm 5 m/s 761 mmHg 66%
    17:00 +26°C° 0 mm 5 m/s 761 mmHg 71%
    18:00 +25°C° 0 mm 5 m/s 762 mmHg 76%
    19:00 +22°C° 0 mm 5 m/s 762 mmHg 81%
    20:00 +22°C° 0 mm 5 m/s 762 mmHg 83%
    21:00 +21°C° 0 mm 5 m/s 763 mmHg 84%
    22:00 +20°C° 0 mm 4 m/s 763 mmHg 85%
    23:00 +21°C° 0.1 mm 4 m/s 763 mmHg 86%

    30 Maio, Sábado

    Tempo Temperatura Precipitação Vento Pressão Humidade
    00:00 +21°C° 0.1 mm 5 m/s 763 mmHg 87%
    01:00 +21°C° 0.1 mm 5 m/s 762 mmHg 88%
    02:00 +21°C° 0 mm 5 m/s 762 mmHg 90%
    03:00 +21°C° 0 mm 5 m/s 762 mmHg 92%
    04:00 +20°C° 0 mm 5 m/s 762 mmHg 94%
    05:00 +20°C° 0 mm 5 m/s 762 mmHg 94%
    06:00 +21°C° 0 mm 5 m/s 762 mmHg 93%
    07:00 +21°C° 0 mm 5 m/s 763 mmHg 92%
    08:00 +23°C° 0 mm 5 m/s 763 mmHg 86%
    09:00 +25°C° 0 mm 5 m/s 763 mmHg 79%
    10:00 +27°C° 0 mm 5 m/s 763 mmHg 73%
    11:00 +27°C° 0 mm 5 m/s 763 mmHg 72%
    12:00 +28°C° 0 mm 5 m/s 762 mmHg 70%
    13:00 +29°C° 0 mm 6 m/s 762 mmHg 69%
    14:00 +28°C° 0.1 mm 5 m/s 761 mmHg 72%
    15:00 +27°C° 0.1 mm 5 m/s 761 mmHg 74%
    16:00 +27°C° 0.1 mm 5 m/s 761 mmHg 77%
    17:00 +26°C° 0 mm 5 m/s 761 mmHg 82%
    18:00 +25°C° 0 mm 5 m/s 762 mmHg 87%
    19:00 +23°C° 0 mm 5 m/s 762 mmHg 92%
    20:00 +22°C° 0 mm 5 m/s 763 mmHg 92%
    21:00 +22°C° 0 mm 4 m/s 763 mmHg 93%
    22:00 +22°C° 0 mm 4 m/s 763 mmHg 93%
    23:00 +22°C° 0.1 mm 4 m/s 763 mmHg 94%

    31 Maio, Domingo

    Tempo Temperatura Precipitação Vento Pressão Humidade
    00:00 +22°C° 0.1 mm 4 m/s 763 mmHg 95%
    01:00 +22°C° 0.1 mm 4 m/s 763 mmHg 96%
    02:00 +22°C° 0 mm 4 m/s 762 mmHg 96%
    03:00 +21°C° 0 mm 4 m/s 762 mmHg 96%
    04:00 +21°C° 0 mm 4 m/s 762 mmHg 96%
    05:00 +21°C° 0 mm 4 m/s 762 mmHg 96%
    06:00 +21°C° 0 mm 4 m/s 763 mmHg 95%
    07:00 +21°C° 0 mm 4 m/s 763 mmHg 95%
    08:00 +23°C° 0 mm 4 m/s 763 mmHg 83%
    09:00 +26°C° 0 mm 4 m/s 763 mmHg 72%
    10:00 +28°C° 0 mm 4 m/s 764 mmHg 61%
    11:00 +29°C° 0 mm 5 m/s 763 mmHg 59%
    12:00 +29°C° 0 mm 5 m/s 762 mmHg 58%
    13:00 +30°C° 0 mm 5 m/s 762 mmHg 57%
    14:00 +29°C° 0 mm 5 m/s 762 mmHg 60%
    15:00 +29°C° 0 mm 5 m/s 761 mmHg 64%
    16:00 +28°C° 0 mm 5 m/s 761 mmHg 67%
    17:00 +26°C° 0 mm 4 m/s 761 mmHg 76%
    18:00 +23°C° 0 mm 4 m/s 762 mmHg 85%
    19:00 +22°C° 0 mm 3 m/s 762 mmHg 94%
    20:00 +22°C° 0.2 mm 3 m/s 763 mmHg 94%
    21:00 +22°C° 0.2 mm 3 m/s 763 mmHg 95%
    22:00 +22°C° 0.2 mm 3 m/s 763 mmHg 95%
    23:00 +22°C° 0.7 mm 3 m/s 763 mmHg 96%
    Mostrar mais